Regional Weather Roundup
Issued by NWS Grand Forks, ND

Home | Current Version | Previous Version | Graphics & Text | Print | Product List | Glossary On
Versions: 1 2 3 4 5 6 7 8 9 10 11 12 13 14 15 16 17 18 19 20 21 22 23 24 25 26 27 28 29 30 31 32 33 34 35 36 37 38 39 40 41 42 43 44 45 46 47 48 49 50
000
ASUS43 KFGF 291810
RWRFGF
PRAIRIE TO PINES  WEATHER ROUNDUP
NATIONAL WEATHER SERVICE EASTERN NORTH DAKOTA/GRAND FORKS ND
1200 PM CST THU JAN 29 2015

 **SATELLITE DATA USED TO AUGMENT SKY COVER AT AUTOMATED STATIONS**
 *****  WEATHER ACROSS EASTERN NORTH DAKOTA  *****

CITY           SKY/WX    TMP DP  RH WIND       PRES   REMARKS
GRAND FORKS    LGT SNOW  14   7  73 N18       30.52R WCI  -3
6HR MIN TEMP:  12; 6HR MAX TEMP:  18; 6HR PCP: TRACE;

GRAND FRKS AFB FLURRIES  14   3  62 N16G25    30.52R WCI  -2
GRAND FRKS NWS   N/A     12 N/A N/A N18         N/A  WCI  -5
DEVILS LAKE    CLOUDY    14   7  73 N15       30.49R WCI  -1
6HR MIN TEMP:  12; 6HR MAX TEMP:  19;

FARGO          CLOUDY    17   7  64 N22       30.50R WCI   0
WAHPETON ARPT  CLOUDY    21  12  68 N23G31    30.47R WCI   5
$$

 ***** WEATHER ACROSS CENTRAL AND WESTERN NORTH DAKOTA  *****

CITY           SKY/WX    TMP DP  RH WIND       PRES   REMARKS
BISMARCK       CLOUDY    29  20  69 N8        30.50R WCI  21
6HR MIN TEMP:  27; 6HR MAX TEMP:  29;

MINOT          LGT SNOW  18  11  74 W21       30.50R WCI   1
6HR MIN TEMP:  17; 6HR MAX TEMP:  24; 6HR PCP: TRACE;

JAMESTOWN      LGT SNOW  19  12  74 NW16G23   30.48R WCI   4
6HR MIN TEMP:  19; 6HR MAX TEMP:  26; 6HR PCP: TRACE;

MINOT AFB      FLURRIES  17  15  94 N7        30.50R WCI   7
GARRISON         N/A     24  19  81 N7        30.47S WCI  16
WILLISTON      CLOUDY    24  17  74 CALM      30.50S
6HR MIN TEMP:  20; 6HR MAX TEMP:  25;

DICKINSON      SUNNY     32  21  64 NW14      30.43S WCI  22
6HR MIN TEMP:  24; 6HR MAX TEMP:  32;

HETTINGER      SUNNY     33  22  63 W10       30.46F WCI  25
6HR MIN TEMP:  25; 6HR MAX TEMP:  33;

$$

 *****  OTHER AIRPORT OBSERVATIONS IN OUR AREA  *****

CITY           SKY/WX    TMP DP  RH WIND       PRES   REMARKS
WALHALLA         N/A      9   1  72 N21G28    30.55S WCI -11
GRAFTON AIRPOR NOT AVBL
VALLEY CITY AR LGT SNOW  18  18 100 N14       30.47R WCI   4
CANDO          FLURRIES  14   7  73 N13       30.50S WCI   0
CAVALIER APRT  FAIR       9   1  72 N22G29    30.54S WCI -11
GWINNER        CLOUDY    25  19  80 N18G24    30.48R WCI  11
SHEYENNE NWR     N/A     20  11  69 N10       29.95S WCI   9
ROLLA          FLURRIES   9   7  92 NW14      30.48S WCI  -8
 ***** THE ABOVE OBSERVATIONS ARE NON NWS ARE NOT QUALITY
       CONTROLLED AND MAY MIS-REPORT RAIN FOR SNOW...
$$

  *****  WEATHER ACROSS NORTHERN MINNESOTA  *****

CITY           SKY/WX    TMP DP  RH WIND       PRES   REMARKS
FLAG ISLAND    SUNNY      3  -2  78 NW21      30.39R WCI -18
WARROAD        SUNNY      7   0  72 NW17G23   30.41R WCI -12
ROSEAU         SUNNY      9   1  72 NW18      30.43R WCI -10
HALLOCK        PTSUNNY    9   1  72 N22G29    30.51S WCI -11
THF RVR FALLS  SUNNY     10   3  72 NW20      30.44S WCI  -8
6HR MIN TEMP:   9; 6HR MAX TEMP:  12;

BAUDETTE       CLOUDY     6  -1  73 NW16G24   30.36R WCI -12
6HR MIN TEMP:   4; 6HR MAX TEMP:  10; 6HR PCP: TRACE;

WASKISH        CLOUDY     9   3  78 NW12      30.36R WCI  -6
CROOKSTON      MOSUNNY   10   7  85 N26G33    30.51R WCI -11
STEPHEN NDAWN    N/A      9   1  72 N17         N/A  WCI -10
GREENBUSH NDAW   N/A      7   1  78 NW20        N/A  WCI -13
$$
  *****  WEATHER ACROSS CENTRAL AND WEST MINNESOTA  *****

CITY           SKY/WX    TMP DP  RH WIND       PRES   REMARKS
FOSSTON        CLOUDY    10   5  79 NW21      30.42R HAZE    WCI  -9
BEMIDJI        PTSUNNY   11   5  77 NW22      30.34R WCI  -8
PARK RAPIDS    FLURRIES  16   9  74 NW20G26   30.32R WCI  -1
6HR MIN TEMP:  15; 6HR MAX TEMP:  21; 6HR PCP: TRACE;

ELBOW LAKE     FLURRIES  18  13  80 NW22G30   30.41R WCI   1
WADENA         FLURRIES  16  10  79 NW20      30.34R WCI  -1
DETROIT LAKES  PTSUNNY   14   9  79 NW24G31   30.41R HAZE    WCI  -5
MOORHEAD       MIX PCPN  18  10  73 N24G31    30.49R WCI   0
FERGUS FALLS   FLURRIES  18  10  73 N22G33    30.46R WCI   0
MORRIS MN      FLURRIES  21  16  79 N30       30.39R WCI   3
STAPLES        FLURRIES  18  14  86 NW18G24   30.31R WCI   2
$$
  *****  WEATHER ELSEWHERE ACROSS MINNESOTA  *****

CITY           SKY/WX    TMP DP  RH WIND       PRES   REMARKS
DULUTH         FLURRIES  22  14  71 NW16G28   30.15R WCI   8
6HR MIN TEMP:  22; 6HR MAX TEMP:  28; 6HR PCP: TRACE;

INTRNTL FALLS  CLOUDY    11   4  73 NW17      30.29R WCI  -6
6HR MIN TEMP:  11; 6HR MAX TEMP:  20; 6HR PCP: TRACE;

ELY            LGT SNOW  18  10  73 NW13G20   30.15R WCI   4
CLOQUET        FLURRIES  21  16  79 NW22G30   30.17R WCI   5
WHEATON        LGT SNOW  19  16  86 N20G28    30.47R WCI   4
BRAINERD       CLOUDY    21  13  71 NW17G24   30.28R WCI   7
6HR MIN TEMP:  20; 6HR MAX TEMP:  26;

HIBBING        LGT SNOW  16   7  67 NW23G29   30.22R WCI  -2
6HR MIN TEMP:  16; 6HR MAX TEMP:  27; 6HR PCP: TRACE;

ALEXANDRIA     CLOUDY    20  12  71 NW23G32   30.35R WCI   3
6HR MIN TEMP:  19; 6HR MAX TEMP:  24; 6HR PCP: TRACE;

SAINT CLOUD    CLOUDY    26  16  65 NW17G35   30.27R WCI  13
6HR MIN TEMP:  25; 6HR MAX TEMP:  28;

MINNEAPOLIS    PTSUNNY   31  21  66 NW18G28   30.23R WCI  19
6HR MIN TEMP:  30; 6HR MAX TEMP:  34; 6HR PCP: TRACE;

$$

  *****  WEATHER ACROSS SOUTH DAKOTA  *****

CITY           SKY/WX    TMP DP  RH WIND       PRES   REMARKS
SIOUX FALLS    CLOUDY    32  23  69 N18       30.41R WCI  20
6HR MIN TEMP:  30; 6HR MAX TEMP:  32;

BROOKINGS      NOT AVBL
WATERTOWN      CLOUDY    26  20  77 N21G30    30.40R WCI  12
6HR MIN TEMP:  26; 6HR MAX TEMP:  27;

HURON          CLOUDY    30  20  66 NW22G30   30.47R WCI  17
6HR MIN TEMP:  30; 6HR MAX TEMP:  32;

SISSETON         N/A     24  21  88 N20       30.43R WCI  10
ABERDEEN       CLOUDY    27  18  69 N22       30.49R WCI  13
6HR MIN TEMP:  26; 6HR MAX TEMP:  32;

MITCHELL       CLOUDY    33  24  69 N15G25    30.48R WCI  23
PIERRE         CLOUDY    36  24  62 NW15      30.48S
6HR MIN TEMP:  32; 6HR MAX TEMP:  36;

MOBRIDGE       CLOUDY    32  20  61 N16       30.46S WCI  21
RAPID CITY     SUNNY     40  16  37 CALM      30.47S
6HR MIN TEMP:  20; 6HR MAX TEMP:  40;

$$

  *****  SOME WEATHER IN NEARBY STATES *****

CITY           SKY/WX    TMP DP  RH WIND       PRES   REMARKS
GLASGOW MT     FOG       27  25  92 SE10      30.42F VSB<1/4 WCI  17
6HR MIN TEMP:  20; 6HR MAX TEMP:  27;

GREAT FALLS MT MOSUNNY   41  26  55 SW10      30.31S
6HR MIN TEMP:  25; 6HR MAX TEMP:  42;

CHEYENNE WY    MOSUNNY   40  22  48 SW7       30.47S
6HR MIN TEMP:  28; 6HR MAX TEMP:  42;

SCOTTSBLUFF NE SUNNY     42  23  46 NW6       30.50F
6HR MIN TEMP:  28; 6HR MAX TEMP:  42;

OMAHA NE       CLOUDY    38  25  59 N26G32    30.39R
6HR MIN TEMP:  36; 6HR MAX TEMP:  38;

DES MOINES IA  CLOUDY    34  25  69 N17G29    30.29R WCI  23
6HR MIN TEMP:  34; 6HR MAX TEMP:  36; 6HR PCP: TRACE;

DAVENPORT IA   CLOUDY    35  29  78 NW16      30.09R
6HR MIN TEMP:  33; 6HR MAX TEMP:  35;

CHICAGO IL     CLOUDY    33  26  75 NW20G25   29.93R WCI  21
6HR MIN TEMP:  32; 6HR MAX TEMP:  35; 6HR PCP:  0.01;

EAU CLAIRE WI  CLOUDY    32  22  66 NW13G24   30.11R WCI  22
6HR MIN TEMP:  32; 6HR MAX TEMP:  33;

LA CROSSE WI   CLOUDY    36  26  67 NW20      30.10R
6HR MIN TEMP:  33; 6HR MAX TEMP:  36; 6HR PCP: TRACE;

$$

  *****  SOME NATIONAL WEATHER *****

CITY           SKY/WX    TMP DP  RH WIND       PRES   REMARKS
LA GUARDIA NY  PTSUNNY   30  11  45 NE7       30.23F WCI  23
6HR MIN TEMP:  21; 6HR MAX TEMP:  30;

RALEIGH NC     PTSUNNY   44  14  29 S8        30.25F
6HR MIN TEMP:  24; 6HR MAX TEMP:  46;

ATLANTA GA     PTSUNNY   53  27  36 SW9       30.23F
6HR MIN TEMP:  36; 6HR MAX TEMP:  53;

NEW ORLEANS LA MOSUNNY   71  57  61 SW8       30.26F
6HR MIN TEMP:  47; 6HR MAX TEMP:  72;

OKLAHOMA CITY  CLOUDY    48  30  49 N26G35    30.40R
6HR MIN TEMP:  47; 6HR MAX TEMP:  50;

ALBUQUERQUE NM CLOUDY    51  27  39 E29G38    30.41R
6HR MIN TEMP:  42; 6HR MAX TEMP:  51;

SALT LAKE CITY FOG       38  34  85 N6        30.37R VSB 1/2
6HR MIN TEMP:  28; 6HR MAX TEMP:  39;

LOS ANGELES CA CLOUDY    67  44  43 E5        30.07R



USA.gov is the U.S. government's official web portal to all federal, state and local government web resources and services.